Time,TemperatureF,DewpointF,PressureIn,WindDirection,WindDirectionDegrees,WindSpeedMPH,WindSpeedGustMPH,Humidity,HourlyPrecipIn,Conditions,Clouds,dailyrainin,SoftwareType,DateUTC
2013-07-24 00:09:00,71.0,70.0,29.47,NNE,17,0.0,0.0,97,0.00,,,0.00,weatherlink.com 1.10,2013-07-24 04:09:00,
2013-07-24 00:24:00,70.8,70.0,29.48,NNE,17,0.0,0.0,97,0.00,,,0.00,weatherlink.com 1.10,2013-07-24 04:24:00,
2013-07-24 00:39:00,70.7,70.0,29.47,NNE,17,0.0,1.0,97,0.00,,,0.00,weatherlink.com 1.10,2013-07-24 04:39:00,
2013-07-24 00:54:00,70.6,70.0,29.47,NNE,17,0.0,0.0,97,0.00,,,0.00,weatherlink.com 1.10,2013-07-24 04:54:00,
2013-07-24 01:09:00,70.5,70.0,29.47,NNE,17,0.0,0.0,97,0.00,,,0.00,weatherlink.com 1.10,2013-07-24 05:09:00,
2013-07-24 01:24:00,70.6,70.0,29.46,NNE,17,0.0,0.0,97,0.00,,,0.00,weatherlink.com 1.10,2013-07-24 05:24:00,
2013-07-24 01:39:00,70.8,70.0,29.47,NNE,17,0.0,1.0,98,0.00,,,0.00,weatherlink.com 1.10,2013-07-24 05:39:00,
2013-07-24 01:54:00,70.9,70.0,29.46,NNE,17,0.0,0.0,97,0.00,,,0.00,weatherlink.com 1.10,2013-07-24 05:54:00,
2013-07-24 02:09:00,70.9,70.0,29.46,NNE,17,0.0,0.0,98,0.00,,,0.00,weatherlink.com 1.10,2013-07-24 06:09:00,
2013-07-24 02:24:00,71.1,71.0,29.46,NNE,17,0.0,0.0,98,0.00,,,0.00,weatherlink.com 1.10,2013-07-24 06:24:00,
2013-07-24 02:39:00,71.1,71.0,29.46,NNE,17,0.0,0.0,98,0.00,,,0.00,weatherlink.com 1.10,2013-07-24 06:39:00,
2013-07-24 02:54:00,71.1,71.0,29.46,NNE,17,0.0,0.0,98,0.00,,,0.00,weatherlink.com 1.10,2013-07-24 06:54:00,
2013-07-24 03:09:00,71.0,70.0,29.46,NNE,17,0.0,0.0,97,0.00,,,0.00,weatherlink.com 1.10,2013-07-24 07:09:00,
2013-07-24 03:24:00,71.0,70.0,29.46,NNE,17,0.0,0.0,98,0.00,,,0.00,weatherlink.com 1.10,2013-07-24 07:24:00,
2013-07-24 03:39:00,71.2,71.0,29.46,NNE,17,0.0,1.0,98,0.00,,,0.00,weatherlink.com 1.10,2013-07-24 07:39:00,
2013-07-24 03:54:00,71.2,71.0,29.46,NNE,17,0.0,0.0,98,0.00,,,0.00,weatherlink.com 1.10,2013-07-24 07:54:00,
2013-07-24 04:09:00,71.3,71.0,29.47,NNE,17,0.0,0.0,98,0.00,,,0.00,weatherlink.com 1.10,2013-07-24 08:09:00,
2013-07-24 04:24:00,71.3,71.0,29.47,NNE,17,0.0,0.0,98,0.00,,,0.00,weatherlink.com 1.10,2013-07-24 08:24:00,
2013-07-24 04:39:00,71.2,71.0,29.47,NNE,17,0.0,1.0,98,0.00,,,0.00,weatherlink.com 1.10,2013-07-24 08:39:00,
2013-07-24 04:54:00,71.2,71.0,29.47,NNE,17,0.0,1.0,98,0.00,,,0.00,weatherlink.com 1.10,2013-07-24 08:54:00,
2013-07-24 05:09:00,71.2,71.0,29.47,NNE,17,0.0,0.0,98,0.00,,,0.00,weatherlink.com 1.10,2013-07-24 09:09:00,
2013-07-24 05:24:00,71.2,71.0,29.47,NNE,17,0.0,0.0,98,0.00,,,0.00,weatherlink.com 1.10,2013-07-24 09:24:00,
2013-07-24 05:39:00,71.0,70.0,29.47,NNE,17,0.0,0.0,97,0.00,,,0.00,weatherlink.com 1.10,2013-07-24 09:39:00,
2013-07-24 05:54:00,70.7,70.0,29.47,NNE,17,0.0,0.0,97,0.00,,,0.00,weatherlink.com 1.10,2013-07-24 09:54:00,
2013-07-24 06:09:00,70.5,70.0,29.48,NNE,17,0.0,1.0,97,0.00,,,0.00,weatherlink.com 1.10,2013-07-24 10:09:00,
2013-07-24 06:24:00,70.5,70.0,29.48,NNE,17,0.0,0.0,98,0.00,,,0.00,weatherlink.com 1.10,2013-07-24 10:24:00,
2013-07-24 06:39:00,70.8,70.0,29.48,NNE,17,0.0,0.0,98,0.00,,,0.00,weatherlink.com 1.10,2013-07-24 10:39:00,
2013-07-24 06:54:00,71.2,71.0,29.49,NNE,17,0.0,0.0,98,0.00,,,0.00,weatherlink.com 1.10,2013-07-24 10:54:00,
2013-07-24 07:10:00,72.4,72.0,29.49,ENE,66,1.0,2.0,99,0.00,,,0.00,weatherlink.com 1.10,2013-07-24 11:10:00,
2013-07-24 07:25:00,72.9,73.0,29.49,ENE,66,0.0,2.0,99,0.00,,,0.00,weatherlink.com 1.10,2013-07-24 11:25:00,
2013-07-24 07:40:00,73.3,73.0,29.50,ENE,66,0.0,1.0,98,0.00,,,0.00,weatherlink.com 1.10,2013-07-24 11:40:00,
2013-07-24 07:55:00,73.6,73.0,29.50,ENE,66,0.0,2.0,97,0.00,,,0.00,weatherlink.com 1.10,2013-07-24 11:55:00,
2013-07-24 08:10:00,74.5,72.0,29.51,ESE,121,3.0,5.0,93,0.00,,,0.00,weatherlink.com 1.10,2013-07-24 12:10:00,
2013-07-24 08:25:00,75.7,73.0,29.51,SSE,148,2.0,4.0,90,0.00,,,0.00,weatherlink.com 1.10,2013-07-24 12:25:00,
2013-07-24 08:40:00,76.9,72.0,29.51,ESE,103,2.0,3.0,84,0.00,,,0.00,weatherlink.com 1.10,2013-07-24 12:40:00,
2013-07-24 08:55:00,77.4,72.0,29.51,ESE,119,1.0,2.0,84,0.00,,,0.00,weatherlink.com 1.10,2013-07-24 12:55:00,
2013-07-24 09:10:00,77.6,71.0,29.51,South,186,1.0,5.0,81,0.00,,,0.00,weatherlink.com 1.10,2013-07-24 13:10:00,
2013-07-24 09:25:00,79.8,72.0,29.52,South,186,6.0,6.0,77,0.00,,,0.00,weatherlink.com 1.10,2013-07-24 13:25:00,
2013-07-24 09:40:00,82.8,72.0,29.52,SSE,156,4.0,6.0,69,0.00,,,0.00,weatherlink.com 1.10,2013-07-24 13:40:00,
2013-07-24 09:55:00,84.3,72.0,29.53,SW,219,0.0,6.0,67,0.00,,,0.00,weatherlink.com 1.10,2013-07-24 13:55:00,
2013-07-24 10:10:00,86.8,71.0,29.53,SSW,200,3.0,6.0,60,0.00,,,0.00,weatherlink.com 1.10,2013-07-24 14:10:00,
2013-07-24 10:25:00,87.5,73.0,29.53,East,95,1.0,7.0,62,0.00,,,0.00,weatherlink.com 1.10,2013-07-24 14:25:00,
2013-07-24 10:40:00,88.7,73.0,29.54,NW,305,0.0,5.0,60,0.00,,,0.00,weatherlink.com 1.10,2013-07-24 14:40:00,
2013-07-24 10:55:00,88.8,72.0,29.54,NE,35,0.0,9.0,58,0.00,,,0.00,weatherlink.com 1.10,2013-07-24 14:55:00,
2013-07-24 11:10:00,88.0,71.0,29.55,North,355,4.0,5.0,58,0.00,,,0.00,weatherlink.com 1.10,2013-07-24 15:10:00,
2013-07-24 11:25:00,88.4,70.0,29.55,WSW,248,2.0,5.0,55,0.00,,,0.00,weatherlink.com 1.10,2013-07-24 15:25:00,
2013-07-24 11:55:00,88.3,70.0,29.56,SSW,194,3.0,11.0,54,0.00,,,0.00,weatherlink.com 1.10,2013-07-24 15:55:00,
2013-07-24 12:10:00,88.9,70.0,29.56,NE,52,0.0,10.0,54,0.00,,,0.00,weatherlink.com 1.10,2013-07-24 16:10:00,
2013-07-24 12:26:00,89.3,68.0,29.57,SSE,155,4.0,9.0,50,0.00,,,0.00,weatherlink.com 1.10,2013-07-24 16:26:00,
2013-07-24 12:41:00,89.2,68.0,29.57,SW,221,3.0,11.0,50,0.00,,,0.00,weatherlink.com 1.10,2013-07-24 16:41:00,
2013-07-24 12:56:00,88.5,69.0,29.57,ESE,113,0.0,9.0,52,0.00,,,0.00,weatherlink.com 1.10,2013-07-24 16:56:00,
2013-07-24 13:11:00,87.7,67.0,29.57,South,185,10.0,11.0,50,0.00,,,0.00,weatherlink.com 1.10,2013-07-24 17:11:00,
2013-07-24 13:26:00,87.5,68.0,29.57,SSW,193,3.0,10.0,52,0.00,,,0.00,weatherlink.com 1.10,2013-07-24 17:26:00,
2013-07-24 13:41:00,88.9,70.0,29.57,North,5,1.0,10.0,53,0.00,,,0.00,weatherlink.com 1.10,2013-07-24 17:41:00,
2013-07-24 13:56:00,88.1,69.0,29.58,NNW,342,5.0,8.0,54,0.00,,,0.00,weatherlink.com 1.10,2013-07-24 17:56:00,
2013-07-24 14:11:00,88.4,70.0,29.58,North,355,3.0,11.0,55,0.00,,,0.00,weatherlink.com 1.10,2013-07-24 18:11:00,
2013-07-24 14:26:00,86.6,70.0,29.59,NNW,343,6.0,8.0,57,0.00,,,0.00,weatherlink.com 1.10,2013-07-24 18:26:00,
2013-07-24 14:41:00,86.5,68.0,29.59,West,263,5.0,9.0,54,0.00,,,0.00,weatherlink.com 1.10,2013-07-24 18:41:00,
2013-07-24 14:56:00,85.2,67.0,29.59,ESE,118,2.0,8.0,54,0.00,,,0.00,weatherlink.com 1.10,2013-07-24 18:56:00,
2013-07-24 15:11:00,85.9,67.0,29.60,NW,321,1.0,10.0,53,0.00,,,0.00,weatherlink.com 1.10,2013-07-24 19:11:00,
2013-07-24 15:26:00,85.6,69.0,29.60,SW,227,3.0,6.0,57,0.00,,,0.00,weatherlink.com 1.10,2013-07-24 19:26:00,
2013-07-24 15:41:00,86.5,67.0,29.61,ESE,123,0.0,7.0,52,0.00,,,0.00,weatherlink.com 1.10,2013-07-24 19:41:00,
2013-07-24 16:11:00,83.6,66.0,29.62,NNW,340,1.0,8.0,55,0.00,,,0.00,weatherlink.com 1.10,2013-07-24 20:11:00,
2013-07-24 16:26:00,82.9,66.0,29.63,North,355,4.0,12.0,56,0.00,,,0.00,weatherlink.com 1.10,2013-07-24 20:26:00,
2013-07-24 16:41:00,83.1,66.0,29.63,NE,46,2.0,6.0,57,0.00,,,0.00,weatherlink.com 1.10,2013-07-24 20:41:00,
2013-07-24 16:56:00,82.9,65.0,29.64,North,360,4.0,6.0,55,0.00,,,0.00,weatherlink.com 1.10,2013-07-24 20:56:00,
2013-07-24 17:11:00,81.8,65.0,29.64,North,355,0.0,4.0,57,0.00,,,0.00,weatherlink.com 1.10,2013-07-24 21:11:00,
2013-07-24 17:26:00,81.1,65.0,29.64,North,5,1.0,7.0,58,0.00,,,0.00,weatherlink.com 1.10,2013-07-24 21:26:00,
2013-07-24 17:41:00,80.4,65.0,29.64,North,360,1.0,4.0,60,0.00,,,0.00,weatherlink.com 1.10,2013-07-24 21:41:00,
2013-07-24 17:56:00,79.8,66.0,29.65,NW,309,0.0,2.0,63,0.00,,,0.00,weatherlink.com 1.10,2013-07-24 21:56:00,
2013-07-24 18:11:00,79.3,65.0,29.65,NNW,347,1.0,3.0,62,0.00,,,0.00,weatherlink.com 1.10,2013-07-24 22:11:00,
2013-07-24 18:26:00,79.1,64.0,29.66,SW,236,0.0,3.0,61,0.00,,,0.00,weatherlink.com 1.10,2013-07-24 22:26:00,
2013-07-24 18:41:00,79.1,64.0,29.66,North,350,4.0,6.0,61,0.00,,,0.00,weatherlink.com 1.10,2013-07-24 22:41:00,
2013-07-24 19:11:00,78.2,65.0,29.68,North,360,7.0,11.0,64,0.00,,,0.00,weatherlink.com 1.10,2013-07-24 23:11:00,
2013-07-24 19:26:00,77.4,64.0,29.69,North,355,8.0,12.0,63,0.00,,,0.00,weatherlink.com 1.10,2013-07-24 23:26:00,
2013-07-24 19:41:00,76.1,63.0,29.71,NNW,327,7.0,10.0,63,0.00,,,0.00,weatherlink.com 1.10,2013-07-24 23:41:00,
2013-07-24 19:56:00,74.9,61.0,29.72,NNE,26,6.0,11.0,63,0.00,,,0.00,weatherlink.com 1.10,2013-07-24 23:56:00,
2013-07-24 20:12:00,74.0,61.0,29.73,NW,318,4.0,10.0,63,0.00,,,0.00,weatherlink.com 1.10,2013-07-25 00:12:00,
2013-07-24 20:26:00,73.2,60.0,29.74,NNE,13,4.0,10.0,64,0.00,,,0.00,weatherlink.com 1.10,2013-07-25 00:26:00,
2013-07-24 20:42:00,72.4,59.0,29.75,NNE,28,3.0,10.0,64,0.00,,,0.00,weatherlink.com 1.10,2013-07-25 00:42:00,
2013-07-24 20:57:00,71.6,58.0,29.77,North,355,1.0,8.0,63,0.00,,,0.00,weatherlink.com 1.10,2013-07-25 00:57:00,
2013-07-24 21:12:00,70.8,58.0,29.78,WNW,294,3.0,7.0,65,0.00,,,0.00,weatherlink.com 1.10,2013-07-25 01:12:00,
2013-07-24 21:27:00,70.2,58.0,29.79,NNE,28,2.0,10.0,66,0.00,,,0.00,weatherlink.com 1.10,2013-07-25 01:27:00,
2013-07-24 21:42:00,69.4,57.0,29.80,NNW,339,7.0,15.0,66,0.00,,,0.00,weatherlink.com 1.10,2013-07-25 01:42:00,
2013-07-24 21:57:00,68.4,57.0,29.81,NNW,336,5.0,13.0,66,0.00,,,0.00,weatherlink.com 1.10,2013-07-25 01:57:00,
2013-07-24 22:12:00,67.6,55.0,29.82,NNW,337,2.0,14.0,65,0.00,,,0.00,weatherlink.com 1.10,2013-07-25 02:12:00,
2013-07-24 22:27:00,66.8,55.0,29.83,NE,44,5.0,12.0,65,0.00,,,0.00,weatherlink.com 1.10,2013-07-25 02:27:00,
2013-07-24 22:42:00,66.0,54.0,29.84,North,351,6.0,10.0,66,0.00,,,0.00,weatherlink.com 1.10,2013-07-25 02:42:00,
2013-07-24 22:57:00,65.4,54.0,29.84,North,5,10.0,12.0,67,0.00,,,0.00,weatherlink.com 1.10,2013-07-25 02:57:00,
2013-07-24 23:12:00,64.9,54.0,29.85,North,10,4.0,13.0,67,0.00,,,0.00,weatherlink.com 1.10,2013-07-25 03:12:00,
2013-07-24 23:27:00,64.5,54.0,29.85,North,5,1.0,13.0,68,0.00,,,0.00,weatherlink.com 1.10,2013-07-25 03:27:00,
2013-07-24 23:42:00,64.2,53.0,29.86,NNW,343,3.0,11.0,68,0.00,,,0.00,weatherlink.com 1.10,2013-07-25 03:42:00,
2013-07-24 23:57:00,63.8,53.0,29.86,NNE,30,2.0,11.0,68,0.00,,,0.00,weatherlink.com 1.10,2013-07-25 03:57:00,